Joplin, MO

12:31 PM CST on January 17, 2017 (GMT -0600)
Joplin Regional

Weather History for KJLN - May, 2012

Change the Weather History Date:

Wednesday, May 23, 2012

  Actual Average Record
Temperature  
Mean Temperature 74 °F 69 °F  
Max Temperature 89 °F 79 °F 92 °F (1996)
Min Temperature 58 °F 58 °F 41 °F (1963)
Degree Days  
Heating Degree Days 0 1  
Month to date heating degree days 13 58  
Since 1 July heating degree days 3291 4061  
Cooling Degree Days 9 5  
Month to date cooling degree days 110 79  
Year to date cooling degree days 246 133  
Growing Degree Days 24 (Base 50)    
Moisture  
Dew Point 56 °F    
Average Humidity 51    
Maximum Humidity 64    
Minimum Humidity 38    
Precipitation  
Precipitation 0.00 in 0.17 in 1.83 in (2011)
Month to date precipitation 1.58 4.30  
Year to date precipitation 16.87 16.54  
Snow  
Snow 0.00 in - - ()
Month to date snowfall 0.0  
Snow Depth 0.00 in    
Sea Level Pressure  
Sea Level Pressure 29.68 in    
Wind  
Wind Speed 13 mph (SSE)    
Max Wind Speed 24 mph    
Max Gust Speed 32 mph    
Visibility 10 miles    
Events      
T = Trace of Precipitation, MM = Missing Value Source: NWS Daily Summary

Daily Weather History Graph

Daily Weather History Graph

Search for Another Location

Airport or City:

Trip Planner

Search our weather history database for the weather conditions in past years. The results will help you decide how hot, cold, wet, or windy it might be!

Date:

Astronomy

May. 23, 2012 Rise Set
Actual Time 6:03 AM CDT 8:26 PM CDT
Civil Twilight 5:33 AM CDT 8:56 PM CDT
Nautical Twilight 4:57 AM CDT 9:33 PM CDT
Astronomical Twilight 4:16 AM CDT 10:13 PM CDT
Moon 8:07 AM CDT (5/23) 10:48 PM CDT (5/23)
Length of Visible Light 15h 22m
Length of Day
14h 22m
Waxing Crescent, 7% of the Moon is Illuminated
May 23
Waxing Crescent
May 28
First Quarter
Jun 4
Full
Jun 11
Last Quarter
Jun 19
New

Hourly Weather History & Observations

Time (CDT) Temp. Heat Index Dew Point Humidity Pressure Visibility Wind Dir Wind Speed Gust Speed Precip Events Conditions
12:53 AM 63.0 °F - 46.9 °F 56% 29.81 in 10.0 mi SE 3.5 mph - N/A   Clear
1:53 AM 60.1 °F - 48.0 °F 64% 29.79 in 10.0 mi SSE 4.6 mph - N/A   Clear
2:53 AM 62.6 °F - 48.2 °F 59% 29.79 in 10.0 mi SE 6.9 mph - N/A   Clear
3:53 AM 63.0 °F - 46.9 °F 56% 29.75 in 10.0 mi SSE 9.2 mph - N/A   Clear
4:53 AM 62.1 °F - 46.9 °F 58% 29.75 in 10.0 mi SSE 10.4 mph - N/A   Clear
5:53 AM 62.1 °F - 46.9 °F 58% 29.75 in 10.0 mi SSE 9.2 mph - N/A   Clear
6:53 AM 63.0 °F - 48.9 °F 60% 29.75 in 10.0 mi SSE 11.5 mph - N/A   Clear
7:53 AM 66.9 °F - 51.1 °F 57% 29.75 in 10.0 mi SSE 12.7 mph - N/A   Clear
8:53 AM 71.1 °F - 53.1 °F 53% 29.75 in 10.0 mi South 11.5 mph 19.6 mph N/A   Clear
9:53 AM 77.0 °F - 55.9 °F 48% 29.74 in 10.0 mi South 15.0 mph - N/A   Clear
10:53 AM 80.1 °F 80.6 °F 57.9 °F 47% 29.73 in 10.0 mi South 16.1 mph 23.0 mph N/A   Clear
11:53 AM 82.9 °F 83.2 °F 60.1 °F 46% 29.71 in 10.0 mi South 17.3 mph 23.0 mph N/A   Clear
12:53 PM 86.0 °F 86.1 °F 61.0 °F 43% 29.69 in 10.0 mi South 18.4 mph 27.6 mph N/A   Clear
1:53 PM 87.1 °F 87.5 °F 62.1 °F 43% 29.66 in 10.0 mi South 20.7 mph 26.5 mph N/A   Clear
2:53 PM 88.0 °F 87.9 °F 61.0 °F 40% 29.62 in 10.0 mi South 19.6 mph 26.5 mph N/A   Clear
3:53 PM 89.1 °F 89.0 °F 61.0 °F 39% 29.60 in 10.0 mi South 17.3 mph 26.5 mph N/A   Clear
4:53 PM 87.8 °F 87.6 °F 60.8 °F 40% 29.59 in 10.0 mi South 23.0 mph 32.2 mph N/A   Clear
5:53 PM 86.0 °F 85.4 °F 59.0 °F 40% 29.55 in 10.0 mi SSE 18.4 mph 31.1 mph N/A   Clear
7:53 PM 81.0 °F 81.7 °F 61.0 °F 50% 29.55 in 10.0 mi SSE 11.5 mph 19.6 mph N/A   Clear
8:53 PM 79.0 °F - 61.0 °F 54% 29.55 in 10.0 mi SSE 10.4 mph - N/A   Clear
9:53 PM 77.0 °F - 61.0 °F 58% 29.57 in 10.0 mi SSE 6.9 mph - N/A   Clear
10:53 PM 77.0 °F - 61.0 °F 58% 29.57 in 10.0 mi ESE 4.6 mph - N/A   Clear
11:53 PM 75.0 °F - 62.1 °F 64% 29.56 in 10.0 mi SSE 10.4 mph 17.3 mph N/A   Clear